ALG290 LPFR-LEZL

Flight info

Callsign ALG290
Flight time 0h 46m
Altitude 22000
Route TUPIX2V TUPIX OSLEP2M
Aircraft TBM9/L-SDFGRWY/S

Departure

Time 2026-04-23 19:36
Airport Faro - Gago Coutinho International Airport (LPFR)

Arrival

Time 2026-04-23 20:23
Airport Seville Airport (LEZL)
Time Latitude Longitude Altitude Speed Heading
2026-04-23 19:21 37.01789 -7.97316 15 ft 0 kts 156°
2026-04-23 19:23 37.01789 -7.97317 15 ft 0 kts 156°
2026-04-23 19:28 37.01811 -7.97327 15 ft 4 kts 168°
2026-04-23 19:29 37.01838 -7.97332 15 ft 4 kts 163°
2026-04-23 19:29 37.01851 -7.97342 15 ft 0 kts 101°
2026-04-23 19:30 37.01851 -7.97341 15 ft 0 kts 103°
2026-04-23 19:31 37.01849 -7.97332 15 ft 4 kts 103°
2026-04-23 19:32 37.01842 -7.97277 15 ft 8 kts 98°
2026-04-23 19:32 37.01829 -7.97188 15 ft 13 kts 101°
2026-04-23 19:32 37.01812 -7.97064 15 ft 15 kts 101°
2026-04-23 19:32 37.01796 -7.96947 15 ft 12 kts 99°
2026-04-23 19:33 37.01749 -7.96895 15 ft 11 kts 190°
2026-04-23 19:33 37.01672 -7.96883 15 ft 13 kts 117°
2026-04-23 19:33 37.01630 -7.96611 15 ft 18 kts 100°
2026-04-23 19:34 37.01606 -7.96447 15 ft 21 kts 103°
2026-04-23 19:34 37.01579 -7.96257 15 ft 23 kts 101°
2026-04-23 19:34 37.01517 -7.95863 15 ft 22 kts 131°
2026-04-23 19:35 37.01389 -7.95854 15 ft 14 kts 189°
2026-04-23 19:35 37.01349 -7.95911 15 ft 10 kts 284°
2026-04-23 19:35 37.01365 -7.96017 15 ft 20 kts 279°
2026-04-23 19:35 37.01419 -7.96404 16 ft 78 kts 279°
2026-04-23 19:36 37.01550 -7.97267 204 ft 117 kts 277°
2026-04-23 19:36 37.01689 -7.98345 621 ft 129 kts 277°
2026-04-23 19:36 37.01874 -7.99405 1278 ft 124 kts 285°
2026-04-23 19:36 37.02094 -8.00448 1841 ft 124 kts 287°
2026-04-23 19:37 37.02245 -8.01657 1932 ft 150 kts 280°
2026-04-23 19:37 37.02391 -8.02941 2451 ft 149 kts 282°
2026-04-23 19:37 37.02544 -8.04222 2863 ft 154 kts 273°
2026-04-23 19:37 37.02119 -8.05465 3261 ft 165 kts 225°
2026-04-23 19:38 37.01060 -8.05947 3698 ft 166 kts 177°
2026-04-23 19:38 36.99985 -8.05474 4236 ft 162 kts 154°
2026-04-23 19:38 36.98977 -8.04886 4818 ft 158 kts 155°
2026-04-23 19:38 36.98000 -8.04322 5393 ft 152 kts 155°
2026-04-23 19:39 36.97059 -8.03691 5850 ft 158 kts 143°
2026-04-23 19:39 36.96556 -8.02353 6127 ft 176 kts 103°
2026-04-23 19:39 36.96524 -8.00847 6664 ft 177 kts 90°
2026-04-23 19:39 36.96712 -7.99321 7180 ft 174 kts 85°
2026-04-23 19:40 36.96945 -7.97864 7625 ft 179 kts 84°
2026-04-23 19:40 36.97217 -7.96310 8035 ft 183 kts 83°
2026-04-23 19:40 36.97508 -7.94759 8484 ft 184 kts 82°
2026-04-23 19:40 36.97799 -7.93183 8935 ft 186 kts 83°
2026-04-23 19:41 36.98088 -7.91603 9385 ft 187 kts 83°
2026-04-23 19:41 36.98374 -7.90022 9828 ft 189 kts 83°
2026-04-23 19:41 36.98665 -7.88414 10232 ft 191 kts 83°
2026-04-23 19:41 36.98959 -7.86786 10638 ft 192 kts 83°
2026-04-23 19:42 36.99254 -7.85151 11052 ft 193 kts 83°
2026-04-23 19:42 36.99552 -7.83501 11461 ft 195 kts 83°
2026-04-23 19:42 36.99851 -7.81842 11868 ft 196 kts 83°
2026-04-23 19:42 37.00152 -7.80169 12281 ft 198 kts 83°
2026-04-23 19:43 37.00456 -7.78478 12700 ft 199 kts 83°
2026-04-23 19:43 37.00762 -7.76780 13122 ft 201 kts 83°
2026-04-23 19:43 37.01064 -7.75097 13582 ft 202 kts 83°
2026-04-23 19:43 37.01374 -7.73371 14012 ft 203 kts 83°
2026-04-23 19:44 37.01684 -7.71638 14414 ft 204 kts 83°
2026-04-23 19:44 37.01998 -7.69888 14818 ft 206 kts 83°
2026-04-23 19:44 37.02311 -7.68136 15218 ft 207 kts 83°
2026-04-23 19:44 37.02623 -7.66390 15621 ft 208 kts 83°
2026-04-23 19:45 37.02941 -7.64613 16032 ft 210 kts 83°
2026-04-23 19:45 37.03261 -7.62820 16437 ft 211 kts 83°
2026-04-23 19:45 37.03581 -7.61021 16842 ft 213 kts 84°
2026-04-23 19:45 37.03905 -7.59206 17235 ft 214 kts 84°
2026-04-23 19:46 37.04230 -7.57379 17654 ft 217 kts 84°
2026-04-23 19:46 37.04561 -7.55530 18186 ft 218 kts 84°
2026-04-23 19:46 37.04891 -7.53675 18648 ft 219 kts 84°
2026-04-23 19:46 37.05218 -7.51832 19084 ft 220 kts 84°
2026-04-23 19:47 37.05443 -7.50562 19382 ft 221 kts 84°
2026-04-23 19:47 37.05924 -7.48064 19957 ft 227 kts 77°
2026-04-23 19:47 37.06553 -7.46229 20413 ft 231 kts 70°
2026-04-23 19:47 37.07259 -7.44414 20848 ft 233 kts 70°
2026-04-23 19:48 37.07950 -7.42572 21293 ft 234 kts 71°
2026-04-23 19:48 37.08631 -7.40711 21740 ft 236 kts 71°
2026-04-23 19:48 37.09317 -7.38834 22020 ft 238 kts 71°
2026-04-23 19:48 37.09997 -7.36980 22015 ft 230 kts 71°
2026-04-23 19:49 37.10662 -7.35188 22014 ft 224 kts 71°
2026-04-23 19:49 37.11092 -7.34023 22016 ft 221 kts 71°
2026-04-23 19:49 37.11732 -7.32283 22015 ft 218 kts 72°
2026-04-23 19:49 37.12569 -7.30004 22017 ft 219 kts 72°
2026-04-23 19:50 37.13000 -7.28823 22017 ft 221 kts 72°
2026-04-23 19:50 37.13646 -7.27059 22020 ft 224 kts 71°
2026-04-23 19:50 37.14290 -7.25304 22024 ft 225 kts 71°
2026-04-23 19:50 37.14949 -7.23509 22027 ft 227 kts 71°
2026-04-23 19:51 37.15609 -7.21705 22010 ft 228 kts 71°
2026-04-23 19:51 37.16243 -7.19886 22026 ft 225 kts 79°
2026-04-23 19:51 37.16480 -7.18013 22039 ft 217 kts 98°
2026-04-23 19:51 37.16408 -7.16138 22038 ft 215 kts 101°
2026-04-23 19:52 37.16334 -7.14256 22038 ft 216 kts 101°
2026-04-23 19:52 37.16262 -7.12365 22037 ft 217 kts 101°
2026-04-23 19:52 37.16187 -7.10471 22038 ft 217 kts 101°
2026-04-23 19:52 37.16110 -7.08579 22038 ft 217 kts 101°
2026-04-23 19:53 37.16035 -7.06708 22038 ft 217 kts 101°
2026-04-23 19:53 37.15958 -7.04817 22037 ft 217 kts 101°
2026-04-23 19:53 37.15881 -7.02920 22037 ft 217 kts 101°
2026-04-23 19:53 37.15803 -7.01016 22037 ft 217 kts 101°
2026-04-23 19:54 37.15727 -6.99145 22032 ft 217 kts 101°
2026-04-23 19:54 37.15648 -6.97249 22032 ft 218 kts 101°
2026-04-23 19:54 37.15571 -6.95356 22031 ft 218 kts 101°
2026-04-23 19:54 37.15492 -6.93462 22031 ft 218 kts 101°
2026-04-23 19:55 37.15413 -6.91566 22030 ft 218 kts 101°
2026-04-23 19:55 37.15334 -6.89670 22030 ft 218 kts 101°
2026-04-23 19:55 37.15254 -6.87775 22029 ft 218 kts 101°
2026-04-23 19:55 37.15175 -6.85879 22030 ft 218 kts 101°
2026-04-23 19:56 37.15095 -6.84000 22018 ft 218 kts 101°
2026-04-23 19:56 37.15014 -6.82098 22021 ft 218 kts 101°
2026-04-23 19:56 37.14933 -6.80198 22020 ft 218 kts 101°
2026-04-23 19:56 37.14852 -6.78297 22020 ft 218 kts 101°
2026-04-23 19:57 37.14771 -6.76401 22020 ft 218 kts 101°
2026-04-23 19:57 37.14689 -6.74501 22019 ft 218 kts 101°
2026-04-23 19:57 37.14607 -6.72600 22021 ft 218 kts 101°
2026-04-23 19:57 37.14525 -6.70706 22020 ft 218 kts 101°
2026-04-23 19:58 37.14442 -6.68808 22019 ft 218 kts 101°
2026-04-23 19:58 37.14359 -6.66911 22021 ft 218 kts 101°
2026-04-23 19:58 37.14276 -6.65014 22023 ft 218 kts 101°
2026-04-23 19:58 37.14193 -6.63140 22022 ft 218 kts 101°
2026-04-23 19:59 37.14110 -6.61242 22022 ft 218 kts 102°
2026-04-23 19:59 37.14026 -6.59343 22023 ft 218 kts 101°
2026-04-23 19:59 37.13941 -6.57443 22022 ft 218 kts 102°
2026-04-23 19:59 37.13857 -6.55549 22022 ft 218 kts 101°
2026-04-23 20:00 37.13771 -6.53651 22031 ft 217 kts 102°
2026-04-23 20:00 37.13686 -6.51757 22030 ft 218 kts 102°
2026-04-23 20:00 37.13600 -6.49858 22029 ft 218 kts 102°
2026-04-23 20:00 37.13514 -6.47961 22029 ft 218 kts 102°
2026-04-23 20:01 37.13428 -6.46070 22020 ft 217 kts 101°
2026-04-23 20:01 37.13344 -6.44204 22029 ft 217 kts 101°
2026-04-23 20:01 37.13258 -6.42318 22028 ft 217 kts 101°
2026-04-23 20:01 37.13170 -6.40432 22028 ft 216 kts 101°
2026-04-23 20:02 37.13084 -6.38545 22027 ft 216 kts 101°
2026-04-23 20:02 37.12996 -6.36660 22026 ft 216 kts 101°
2026-04-23 20:02 37.12909 -6.34776 22026 ft 216 kts 101°
2026-04-23 20:02 37.12821 -6.32890 22025 ft 216 kts 101°
2026-04-23 20:03 37.12734 -6.31031 22026 ft 216 kts 101°
2026-04-23 20:03 37.12646 -6.29146 22026 ft 216 kts 101°
2026-04-23 20:03 37.12557 -6.27265 22026 ft 216 kts 101°
2026-04-23 20:03 37.12468 -6.25381 22021 ft 216 kts 101°
2026-04-23 20:04 37.12379 -6.23499 21997 ft 218 kts 101°
2026-04-23 20:04 37.12280 -6.21547 21655 ft 231 kts 101°
2026-04-23 20:04 37.12177 -6.19492 21283 ft 240 kts 101°
2026-04-23 20:04 37.12077 -6.17369 20916 ft 246 kts 100°
2026-04-23 20:05 37.11978 -6.15238 20555 ft 248 kts 100°
2026-04-23 20:05 37.11873 -6.13075 20192 ft 249 kts 100°
2026-04-23 20:05 37.11768 -6.10900 19831 ft 250 kts 100°
2026-04-23 20:05 37.11662 -6.08726 19453 ft 249 kts 100°
2026-04-23 20:06 37.11557 -6.06565 19102 ft 248 kts 100°
2026-04-23 20:06 37.11451 -6.04405 18750 ft 247 kts 100°
2026-04-23 20:06 37.11346 -6.02261 18403 ft 246 kts 100°
2026-04-23 20:06 37.11241 -6.00151 18020 ft 245 kts 100°
2026-04-23 20:07 37.11136 -5.98028 17621 ft 243 kts 100°
2026-04-23 20:07 37.11031 -5.95917 17232 ft 242 kts 100°
2026-04-23 20:07 37.10927 -5.93815 16844 ft 240 kts 100°
2026-04-23 20:07 37.10822 -5.91723 16455 ft 239 kts 100°
2026-04-23 20:08 37.10718 -5.89653 16080 ft 237 kts 100°
2026-04-23 20:08 37.10614 -5.87604 15708 ft 236 kts 100°
2026-04-23 20:08 37.10512 -5.85581 15344 ft 234 kts 100°
2026-04-23 20:08 37.10409 -5.83556 14977 ft 233 kts 100°
2026-04-23 20:09 37.10307 -5.81540 14623 ft 231 kts 100°
2026-04-23 20:09 37.10205 -5.79535 14268 ft 230 kts 100°
2026-04-23 20:09 37.10102 -5.77534 13907 ft 228 kts 100°
2026-04-23 20:09 37.09999 -5.75553 13523 ft 227 kts 100°
2026-04-23 20:10 37.09932 -5.74246 13266 ft 226 kts 100°
2026-04-23 20:10 37.09797 -5.71626 12749 ft 225 kts 99°
2026-04-23 20:10 37.09698 -5.69697 12362 ft 224 kts 98°
2026-04-23 20:10 37.09864 -5.67742 11887 ft 226 kts 79°
2026-04-23 20:11 37.10505 -5.66010 11362 ft 214 kts 61°
2026-04-23 20:11 37.11476 -5.64662 10855 ft 204 kts 43°
2026-04-23 20:11 37.12660 -5.63754 10358 ft 197 kts 25°
2026-04-23 20:11 37.13951 -5.63234 9867 ft 193 kts 18°
2026-04-23 20:12 37.15226 -5.62753 9353 ft 190 kts 19°
2026-04-23 20:12 37.16481 -5.62269 8837 ft 187 kts 19°
2026-04-23 20:12 37.17713 -5.61857 8335 ft 185 kts 10°
2026-04-23 20:12 37.19000 -5.61789 7837 ft 184 kts
2026-04-23 20:13 37.20251 -5.61755 7608 ft 170 kts
2026-04-23 20:13 37.21420 -5.61684 7600 ft 175 kts
2026-04-23 20:13 37.22674 -5.61590 7479 ft 194 kts
2026-04-23 20:13 37.24069 -5.61477 7119 ft 203 kts
2026-04-23 20:14 37.25484 -5.61375 6770 ft 204 kts
2026-04-23 20:14 37.26901 -5.61275 6418 ft 203 kts
2026-04-23 20:14 37.28306 -5.61174 6066 ft 201 kts
2026-04-23 20:14 37.29697 -5.61075 5723 ft 199 kts
2026-04-23 20:15 37.31076 -5.60976 5395 ft 198 kts
2026-04-23 20:15 37.32447 -5.60875 5064 ft 196 kts
2026-04-23 20:15 37.33805 -5.60778 4737 ft 194 kts
2026-04-23 20:15 37.35143 -5.60679 4419 ft 191 kts
2026-04-23 20:16 37.36449 -5.60586 4115 ft 190 kts
2026-04-23 20:16 37.37771 -5.60491 3797 ft 190 kts
2026-04-23 20:16 37.39093 -5.60477 3469 ft 190 kts 350°
2026-04-23 20:16 37.40310 -5.61065 3149 ft 185 kts 326°
2026-04-23 20:17 37.41227 -5.62147 3013 ft 184 kts 302°
2026-04-23 20:17 37.41780 -5.63626 3024 ft 184 kts 281°
2026-04-23 20:17 37.41870 -5.65177 3033 ft 175 kts 267°
2026-04-23 20:17 37.41860 -5.66677 3031 ft 173 kts 268°
2026-04-23 20:18 37.41860 -5.68203 3017 ft 176 kts 269°
2026-04-23 20:18 37.41867 -5.69777 2841 ft 184 kts 268°
2026-04-23 20:18 37.41861 -5.71247 2633 ft 137 kts 266°
2026-04-23 20:18 37.41850 -5.72351 2458 ft 120 kts 264°
2026-04-23 20:19 37.41850 -5.73333 2302 ft 106 kts 265°
2026-04-23 20:19 37.41841 -5.74255 2164 ft 106 kts 265°
2026-04-23 20:19 37.41840 -5.75186 2022 ft 106 kts 266°
2026-04-23 20:19 37.41840 -5.76109 1885 ft 105 kts 265°
2026-04-23 20:20 37.41834 -5.77025 1747 ft 106 kts 265°
2026-04-23 20:20 37.41839 -5.77952 1616 ft 105 kts 266°
2026-04-23 20:20 37.41848 -5.78867 1513 ft 105 kts 265°
2026-04-23 20:20 37.41842 -5.79788 1401 ft 106 kts 265°
2026-04-23 20:21 37.41839 -5.80721 1240 ft 109 kts 266°
2026-04-23 20:21 37.41824 -5.81671 1106 ft 108 kts 266°
2026-04-23 20:21 37.41832 -5.82622 926 ft 111 kts 267°
2026-04-23 20:21 37.41821 -5.83602 741 ft 112 kts 267°
2026-04-23 20:22 37.41816 -5.84596 565 ft 116 kts 268°
2026-04-23 20:22 37.41815 -5.85591 383 ft 107 kts 265°
2026-04-23 20:22 37.41810 -5.86523 268 ft 107 kts 267°
2026-04-23 20:22 37.41801 -5.87468 152 ft 109 kts 266°
2026-04-23 20:23 37.41799 -5.88334 105 ft 80 kts 265°
2026-04-23 20:23 37.41811 -5.88783 98 ft 11 kts 334°
2026-04-23 20:23 37.41839 -5.88779 99 ft 6 kts 11°
2026-04-23 20:23 37.41898 -5.88764 100 ft 2 kts 10°
2026-04-23 20:24 37.41929 -5.88757 101 ft 8 kts 11°
2026-04-23 20:24 37.41964 -5.88751 101 ft 8 kts 353°
2026-04-23 20:24 37.41982 -5.88858 97 ft 20 kts 268°
2026-04-23 20:24 37.41983 -5.89070 93 ft 27 kts 270°
2026-04-23 20:25 37.41982 -5.89266 90 ft 16 kts 269°
2026-04-23 20:25 37.42005 -5.89386 87 ft 16 kts 305°
2026-04-23 20:25 37.42086 -5.89486 90 ft 12 kts 340°
2026-04-23 20:25 37.42156 -5.89438 90 ft 13 kts 43°
2026-04-23 20:26 37.42188 -5.89467 90 ft 5 kts 235°
2026-04-23 20:26 37.42170 -5.89489 90 ft 0 kts 226°